FENGYUN 1C DEB

Satellite information

Favourite Embed

Satellite Type and Status

DEBRISIN ORBIT

Key statistics

Satellite FENGYUN 1C DEB at a glance.

Uptime

9553

Days in orbit

Revolutions

≈ 14.4

Per day

Orbit

SSO

Sun Synchronous Orbit

Inclination

98.6

Latest

Satellite identification and parameters

Extended collection of information and parameters for FENGYUN 1C DEB.

Object identification

Identified? True

Debris? True

Object name: FENGYUN 1C DEB

International designator: 1999-025CEJ

Object number (NORAD): 31735

Object ID (CCSDS): 31735

Country: PEOPLES REPUBLIC OF CHINA (PRC)

Current information (Y/N): Y

RCS size: SMALL

Orbital parameters

Period: 99.897 minutes

Inclination: 98.5763 deg

SMA: 7131.736 km

Apoapsis: 797.491 km

Periapsis: 709.712 km

RAAN: 287.5755 deg

Eccentricy: 0.0061541

Argument of periapsis: 50.5495 deg

Mean anomaly: 310.1117 deg

Mean motion: 14.41484121 rev/day

Mean motion (dot): 0.00001623 rev/day2

B* drag term: 0.00050248 1/REarth

Two-line elements (TLE)

Creation date: July 4, 2025, 6:39 p.m.

Reference frame: TEME

Reference center: EARTH

Epoch: July 4, 2025, 12:41 a.m. UTC

TLE line 0: 0 FENGYUN 1C DEB

TLE line 1: 1 31735U 99025CEJ 25185.02857420 .00001623 00000-0 50248-3 0 9997

TLE line 2: 2 31735 98.5763 287.5755 0061541 50.5495 310.1117 14.41484121943340

Live tracking on map

Real-time ground track for satellite FENGYUN 1C DEB.

In-orbit conjunctions

A list of the most updated potential collisions computed for object FENGYUN 1C DEB.

Target Orbit TCA Probability of collision Miss distance Type
PICOSAT 6 SSO 2025-02-28 20:20:51 0.000341705 221.0 (m) PAYLOAD
CZ-6A DEB LEO 2025-02-12 06:40:24 0.01105492 32.0 (m) DEBRIS
CZ-6A DEB LEO 2025-02-03 15:34:22 0.000115983 320.0 (m) DEBRIS
METEOR 2-7 DEB LEO 2024-11-16 10:21:02 0.0003259068 324.0 (m) DEBRIS

Associated space launch

Chinese polar orbiting meteorological satellite

FENGYUN 1C DEB was lifted into orbit during the mission ‘Long March 4B | Feng Yun 1C’, on board a Long March 4B space rocket.

The launch took place on May 10, 1999, 1:33 a.m. from Launch Complex 7.

For more information about the launch, click the button.

Launch to space Long March 4B | Feng Yun 1C
Long March 4B | Feng Yun 1C

Agency: N/A

Status: Launch Successful

Launch date: May 10, 1999, 1:33 a.m. UTC

Rocket: Long March 4B

Launch pad: Launch Complex 7

Location: Taiyuan Satellite Launch Center, People's Republic of China

...

Latest news about this satellite

There are no fresh news available about this satellite. Check back as we update our databases every day.


Newsletter sign-up

Weekly statistics, charts and insights to help you stay on top of the space industry.